Satellite: ASTRA 1B
Catalog number: 21139
Epoch time:      103023.00000000
Element set:     158 
Inclination:        0.0122 deg
RA of node:       319.8851 deg
Eccentricity:    0.0002995
Arg of perigee:    65.1991 deg
Mean anomaly:     116.0459 deg
Mean motion:    1.00273184 rev/day
Decay rate:    1.2399E-006 rev/day^2
Epoch rev:            3192
Checksum:              241

Satellite: METEOSAT 5 (MO
Catalog number: 21140
Epoch time:      103030.86842619
Element set:     699 
Inclination:        5.5886 deg
RA of node:        70.0779 deg
Eccentricity:    0.0002689
Arg of perigee:   145.8566 deg
Mean anomaly:     289.1893 deg
Mean motion:    1.00269534 rev/day
Decay rate:    9.0000E-008 rev/day^2
Epoch rev:            4586
Checksum:              330

Satellite: NOAA 12
Catalog number: 21263
Epoch time:      103034.94989293
Element set:     956 
Inclination:       98.6241 deg
RA of node:        24.8262 deg
Eccentricity:    0.0013756
Arg of perigee:    64.8764 deg
Mean anomaly:     295.3840 deg
Mean motion:   14.25069714 rev/day
Decay rate:    2.8800E-006 rev/day^2
Epoch rev:           60913
Checksum:              332

Satellite: OSCAR 22 (UoSA
Catalog number: 21575
Epoch time:      103035.53307327
Element set:     717 
Inclination:       98.1391 deg
RA of node:        28.3628 deg
Eccentricity:    0.0007357
Arg of perigee:   168.0251 deg
Mean anomaly:     192.1113 deg
Mean motion:   14.39143361 rev/day
Decay rate:    2.8599E-006 rev/day^2
Epoch rev:           60626
Checksum:              311

Satellite: METEOR 3-5
Catalog number: 21655
Epoch time:      103034.93573469
Element set:     576 
Inclination:       82.5526 deg
RA of node:        49.2002 deg
Eccentricity:    0.0012337
Arg of perigee:   234.0314 deg
Mean anomaly:     125.9666 deg
Mean motion:   13.16979012 rev/day
Decay rate:    5.1000E-007 rev/day^2
Epoch rev:           55155
Checksum:              296

Satellite: UARS
Catalog number: 21701
Epoch time:      103035.12829581
Element set:     816 
Inclination:       56.9816 deg
RA of node:        90.4997 deg
Eccentricity:    0.0005044
Arg of perigee:   115.6533 deg
Mean anomaly:     244.5046 deg
Mean motion:   15.02826412 rev/day
Decay rate:    7.4599E-006 rev/day^2
Epoch rev:           62354
Checksum:              308

Satellite: EUTELSAT 2-F3
Catalog number: 21803
Epoch time:      103034.84161444
Element set:     516 
Inclination:        2.5616 deg
RA of node:        89.2918 deg
Eccentricity:    0.0002656
Arg of perigee:   251.1318 deg
Mean anomaly:     117.5431 deg
Mean motion:    1.00272798 rev/day
Decay rate:    1.2100E-006 rev/day^2
Epoch rev:            3685
Checksum:              270

Satellite: INMARSAT 2-F3
Catalog number: 21814
Epoch time:      103034.42451237
Element set:     609 
Inclination:        1.7154 deg
RA of node:        57.8289 deg
Eccentricity:    0.0002711
Arg of perigee:   271.9963 deg
Mean anomaly:     174.1078 deg
Mean motion:    1.00271559 rev/day
Decay rate:    1.0400E-006 rev/day^2
Epoch rev:            4074
Checksum:              273

Satellite: INMARSAT 2-F4
Catalog number: 21940
Epoch time:      103031.69489394
Element set:     567 
Inclination:        2.3651 deg
RA of node:        19.1621 deg
Eccentricity:    0.0001499
Arg of perigee:   302.0485 deg
Mean anomaly:     168.4151 deg
Mean motion:    1.00268330 rev/day
Decay rate:   -3.6300E-006 rev/day^2
Epoch rev:            3950
Checksum:              276

Satellite: EUTELSAT 2-F4
Catalog number: 22028
Epoch time:      103028.97057872
Element set:     324 
Inclination:        1.6660 deg
RA of node:        92.8484 deg
Eccentricity:    0.0005860
Arg of perigee:   216.6759 deg
Mean anomaly:     155.3765 deg
Mean motion:    1.00272003 rev/day
Decay rate:   -1.0600E-006 rev/day^2
Epoch rev:            3157
Checksum:              283

Satellite: OSCAR 23 (KITS
Catalog number: 22077
Epoch time:      103034.95183118
Element set:     265 
Inclination:       66.0798 deg
RA of node:       156.3352 deg
Eccentricity:    0.0015407
Arg of perigee:   277.8913 deg
Mean anomaly:      82.0357 deg
Mean motion:   12.86407942 rev/day
Decay rate:   -3.7000E-007 rev/day^2
Epoch rev:           49242
Checksum:              313

Satellite: ASTRA 1C
Catalog number: 22653
Epoch time:      103023.00000000
Element set:     784 
Inclination:        0.0122 deg
RA of node:       319.8851 deg
Eccentricity:    0.0002995
Arg of perigee:    65.1991 deg
Mean anomaly:     116.0096 deg
Mean motion:    1.00273184 rev/day
Decay rate:    1.2299E-006 rev/day^2
Epoch rev:            3062
Checksum:              240

Satellite: METEOR 2-21
Catalog number: 22782
Epoch time:      103034.85376332
Element set:     509 
Inclination:       82.5448 deg
RA of node:       226.5651 deg
Eccentricity:    0.0023061
Arg of perigee:    30.6081 deg
Mean anomaly:     329.6389 deg
Mean motion:   13.83530775 rev/day
Decay rate:   -1.1999E-007 rev/day^2
Epoch rev:           47605
Checksum:              325

Satellite: KITSAT B
Catalog number: 22825
Epoch time:      103035.53803726
Element set:     478 
Inclination:       98.2756 deg
RA of node:        65.9486 deg
Eccentricity:    0.0007774
Arg of perigee:   306.2298 deg
Mean anomaly:      53.8168 deg
Mean motion:   14.28937750 rev/day
Decay rate:    1.4700E-006 rev/day^2
Epoch rev:           48787
Checksum:              458

Satellite: POSAT 1
Catalog number: 22826
Epoch time:      103034.59033959
Element set:     306 
Inclination:       98.2777 deg
RA of node:        66.1580 deg
Eccentricity:    0.0008583
Arg of perigee:   309.4145 deg
Mean anomaly:      50.6275 deg
Mean motion:   14.29159651 rev/day
Decay rate:    1.4099E-006 rev/day^2
Epoch rev:           48778
Checksum:              339

Satellite: ITAMSAT
Catalog number: 22828
Epoch time:      103034.64423600
Element set:     417 
Inclination:       98.2735 deg
RA of node:        66.4734 deg
Eccentricity:    0.0009343
Arg of perigee:   286.4865 deg
Mean anomaly:      73.5290 deg
Mean motion:   14.29502619 rev/day
Decay rate:    1.1199E-006 rev/day^2
Epoch rev:           45599
Checksum:              325

Satellite: EYESAT A
Catalog number: 22829
Epoch time:      103034.65612870
Element set:     441 
Inclination:       98.2757 deg
RA of node:        67.0833 deg
Eccentricity:    0.0009076
Arg of perigee:   286.1814 deg
Mean anomaly:      73.8369 deg
Mean motion:   14.29759769 rev/day
Decay rate:    1.9300E-006 rev/day^2
Epoch rev:           48792
Checksum:              348

Satellite: METEOSAT 6
Catalog number: 22912
Epoch time:      103034.85176123
Element set:     664 
Inclination:        2.6419 deg
RA of node:        82.4476 deg
Eccentricity:    0.0000958
Arg of perigee:   237.8676 deg
Mean anomaly:     129.4266 deg
Mean motion:    1.00278151 rev/day
Decay rate:    5.6999E-007 rev/day^2
Epoch rev:            3215
Checksum:              316

Satellite: GOES 8
Catalog number: 23051
Epoch time:      103034.42185608
Element set:     589 
Inclination:        0.2612 deg
RA of node:       103.5931 deg
Eccentricity:    0.0000934
Arg of perigee:   295.7641 deg
Mean anomaly:     170.4684 deg
Mean motion:    1.00281783 rev/day
Decay rate:   -2.5700E-006 rev/day^2
Epoch rev:            3965
Checksum:              398

Satellite: ASTRA 1D
Catalog number: 23331
Epoch time:      103034.84223145
Element set:     811 
Inclination:        0.0526 deg
RA of node:       222.1035 deg
Eccentricity:    0.0003596
Arg of perigee:    39.5863 deg
Mean anomaly:     199.2686 deg
Mean motion:    1.00273941 rev/day
Decay rate:    1.3300E-006 rev/day^2
Epoch rev:            3072
Checksum:              250

Satellite: RADIO ROSTO
Catalog number: 23439
Epoch time:      103033.50640412
Element set:     679 
Inclination:       64.8175 deg
RA of node:        67.4555 deg
Eccentricity:    0.0147166
Arg of perigee:   118.2324 deg
Mean anomaly:     243.3477 deg
Mean motion:   11.27548155 rev/day
Decay rate:   -4.1999E-007 rev/day^2
Epoch rev:           33378
Checksum:              323

Satellite: NOAA 14
Catalog number: 23455
Epoch time:      103034.96102936
Element set:     511 
Inclination:       99.1871 deg
RA of node:        53.1435 deg
Eccentricity:    0.0008591
Arg of perigee:   271.3139 deg
Mean anomaly:      88.7048 deg
Mean motion:   14.13291032 rev/day
Decay rate:    1.1399E-006 rev/day^2
Epoch rev:           41741
Checksum:              298

Satellite: HIMAWARI 5 (GM
Catalog number: 23522
Epoch time:      103034.14095716
Element set:     83 
Inclination:        1.7414 deg
RA of node:        83.9232 deg
Eccentricity:    0.0000441
Arg of perigee:    22.1495 deg
Mean anomaly:     217.4173 deg
Mean motion:    1.00262601 rev/day
Decay rate:   -2.9299E-006 rev/day^2
Epoch rev:            2873
Checksum:              265

Satellite: HOT BIRD 1
Catalog number: 23537
Epoch time:      103013.80550721
Element set:     533 
Inclination:        0.0070 deg
RA of node:       236.2796 deg
Eccentricity:    0.0008090
Arg of perigee:    86.9786 deg
Mean anomaly:      92.5958 deg
Mean motion:    1.00275871 rev/day
Decay rate:    1.0700E-006 rev/day^2
Epoch rev:            2861
Checksum:              279

Satellite: GOES 9
Catalog number: 23581
Epoch time:      103031.49884696
Element set:     498 
Inclination:        0.3154 deg
RA of node:       277.7072 deg
Eccentricity:    0.0012790
Arg of perigee:   253.4411 deg
Mean anomaly:     356.2791 deg
Mean motion:    1.00049027 rev/day
Decay rate:    1.1500E-006 rev/day^2
Epoch rev:            2818
Checksum:              290

